星链-32956 (STARLINK-32956)

导读

STARLINK-32959是美国SpaceX公司星链(Starlink)卫星互联网星座中的一颗低轨通信卫星,于2025年4月14日发射入轨。作为星链全球覆盖组网的组成部分,它属于星链卫星星座扩容的一部分,旨在参与构建全球无缝覆盖的低延迟宽带卫星互联网。依托星链成熟的技术设计,该卫星可支持偏远地区网络接入、移动通信补网等应用,目前已进入预定轨道参与组网运营,助力星链实现覆盖全球的卫星通信服务布局。

Basic Information
目录编号:
63569
目录名称:
STARLINK-32959
国际标识:
2025-076A
轨道中心:
EARTH
卫星名称:
星链-32956
卫星全名:
星链-32956 (STARLINK-32956)
卫星状态:
在轨 (已飞行426 天)
发射日期:
2025-04-14 UTC
国别 :
美国 (US)
星等 :
--
Orbit Information
数据来源 国际轨道数据 AOE轨道数据
星历时间 2026-06-13T00:27:42+0800
1天前
查看轨道信息
2026-06-14T02:00:00+0800
15小时前
查看轨道信息
半长轴 6861.161km 6861.126km
偏心率 0.0001067 0.0000034
轨道倾角 42.999° 43.000°
近地点辐角 265.513° 209.157°
升交点赤经 149.187° 143.179°
平近点角 94.560° 249.629°
近地点 482.291km 482.965km
远地点 483.757km 483.013km
周期 94.266分钟 94.265分钟
每日圈数 15.275886 15.276004
Detailed Information
固有亮度:
5
最大亮度:
2.5
卫星平台:
Starlink V1.0
覆盖范围:
全球
运营商:
太空探索技术公司
运营商所在国:
美国
制造商(研发单位):
太空探索技术公司
制造商所在国:
美国
使用方式:
暂无
Satellite Introduction
Starlink 计划是 SpaceX 推出的全球卫星互联网项目,通过发射低轨道卫星,为全球尤其是偏远地区提供高速、低延迟的互联网服务。自 2019 年起,Starlink 已部署数千颗卫星,旨在缩小全球数字鸿沟,推动互联网普及。该项目还为军事、航空等行业提供通信支持,带来广泛经济效益。
2D Orbit Map
3D Orbit Map
Orbit Altitude Analysis Chart
Orbit Inclination Analysis Chart
Orbit Comprehensive Analysis Chart
View Comprehensive Chart